Location: Hauppauge
(40.8260°N, 73.2030°W)
Time: 01:26:23
(UTC-04:00)

Daily predictions for brighter satellites

Satellite Brightness Start Highest point End
(mag) Time Altitude Azimuth Time Altitude Azimuth Time Altitude Azimuth
Terra 4.3 00:05:46 15° WNW 00:05:46 15° WNW 00:07:13 10° NW
COSMOS 2428 4.4 00:05:01 25° WNW 00:05:50 26° NW 00:10:35 10° N
NOSS 3-1 (A) 4.3 00:10:33 46° NNE 00:10:33 46° NNE 00:15:12 10° NNE
ATLAS 2AS CENTAUR R/B 4.2 00:13:05 28° ENE 00:13:05 28° ENE 00:17:26 10° NE
SL-16 R/B 3.7 00:33:20 31° NNE 00:33:20 31° NNE 00:36:12 10° NNE
Cosmos 2333 Rocket 3.9 00:46:51 27° NW 00:46:51 27° NW 00:51:20 10° N
CZ-4C R/B 3.5 00:39:48 10° NW 00:44:55 47° WNW 00:44:55 47° WNW
ATLAS 3B R/B 3.6 00:44:31 10° NNW 00:50:54 39° NE 00:51:14 39° NE
Cosmos 2237 Rocket 3.8 00:56:36 29° NW 00:56:36 29° NW 01:00:41 10° N
Cosmos 2278 Rocket 4.4 00:54:31 10° NW 00:56:09 17° WNW 00:56:09 17° WNW
CZ-2C R/B 4.3 01:14:11 10° N 01:17:28 29° NW 01:17:28 29° NW
USA 215 3.8 01:16:42 10° NE 01:21:27 52° NE 01:21:27 52° NE
USA 267 4.1 01:49:05 10° ESE 01:55:16 47° NNE 02:01:28 10° NW
ATLAS CENTAUR R/B 4.2 02:00:34 15° N 02:00:34 15° N 02:01:39 10° N
Cosmos 2369 Rocket 3.2 01:53:10 10° NNW 01:56:56 42° N 01:56:56 42° N
ATLAS 2AS CENTAUR R/B 3.3 02:00:28 56° WNW 02:01:03 57° NW 02:09:03 10° NNE
SL-16 R/B 4.2 02:15:11 18° NW 02:15:17 18° NW 02:19:01 10° N
Resurs 1-4 Rocket 4.0 02:13:02 10° NE 02:16:48 20° E 02:16:58 20° E
CZ-2D R/B 4.0 02:16:02 10° NE 02:19:57 21° E 02:20:13 21° E
Cosmos 1943 Rocket 2.7 02:19:57 10° NNW 02:25:05 56° NE 02:25:05 56° NE
BREEZE M DEB (TANK) 4.2 02:06:21 10° WNW 02:28:22 84° SW 02:30:16 55° SE
Cosmos 1809 Rocket 4.5 02:27:28 10° N 02:33:11 75° NNE 02:33:11 75° NNE
ATLAS 3B R/B 3.9 02:35:20 10° NW 02:38:26 26° WNW 02:38:26 26° WNW
SL-16 R/B 3.0 02:49:25 37° SE 02:51:41 56° ENE 02:57:43 10° N
Aureole 1 Rocket 3.9 02:52:29 58° E 02:52:29 58° E 02:56:39 10° NNE
Cosmos 1680 Rocket 3.9 02:53:52 57° E 02:53:52 57° E 02:58:42 10° NNE
CBERS-1 4.3 02:48:35 10° NNE 02:52:55 65° N 02:52:55 65° N
USA 238 DEB 4.4 02:47:12 10° NW 02:52:03 41° WNW 02:52:03 41° WNW
USA 238 4.3 02:47:18 10° NW 02:52:12 42° WNW 02:52:12 42° WNW
IRS-1C 4.2 02:50:23 10° NNE 02:55:27 73° ENE 02:55:27 73° ENE
Cosmos 2218 Rocket 4.4 02:56:54 10° NNW 03:02:00 46° WNW 03:02:00 46° WNW
IRS-1D 4.0 02:58:38 10° NNE 03:03:43 54° E 03:04:07 53° ESE
USA 215 4.4 03:00:02 10° NE 03:05:52 36° NNW 03:08:48 24° WNW
Cosmos 2366 rocket 4.3 03:03:30 10° NNW 03:09:01 49° WNW 03:09:01 49° WNW
Cosmos 1656 Rocket 3.9 03:06:48 10° NNW 03:12:11 62° ENE 03:14:45 30° SE
Cosmos 1943 4.3 03:12:41 31° WNW 03:12:44 31° WNW 03:17:43 10° N
GEOS 3 Rocket 3.5 03:08:00 10° NE 03:13:19 85° NW 03:13:30 82° W
Cosmos 1626 Rocket 4.4 03:15:42 44° NNW 03:15:42 44° NNW 03:18:52 10° N
Lacrosse 5 rocket 3.6 03:14:44 19° ESE 03:14:47 19° ESE 03:18:04 10° ENE
UNK 3.8 03:16:45 74° NNE 03:16:45 74° NNE 03:21:02 10° N
SL-27 R/B 4.3 03:19:08 28° E 03:19:08 28° E 03:21:40 10° NE
ARIANE 5 R/B 2.6 03:13:49 10° NNE 03:19:04 70° ESE 03:19:42 63° SSE
COSMOS 2455 3.1 03:13:46 10° NNW 03:19:48 69° ENE 03:25:45 10° SE
Meteor 2-14 Rocket 4.4 03:15:50 10° NNW 03:21:51 58° W 03:21:59 58° W
Meteor 2-16 Rocket 4.3 03:17:32 10° NNW 03:23:33 64° W 03:24:01 62° WSW
Genesis I 4.3 03:19:54 10° NNW 03:23:43 45° NE 03:25:24 28° ESE
Cosmos 1825 Rocket 4.2 03:24:03 49° ESE 03:24:29 51° E 03:28:47 10° NNE
NOSS 3-2 (C) 3.9 03:17:55 10° NW 03:25:30 82° WSW 03:33:41 10° SSE
Cosmos 923 Rocket 4.2 03:26:00 55° WNW 03:26:02 55° WNW 03:31:18 10° N
RESURS DK-1 2.7 03:28:13 64° ENE 03:28:13 64° ENE 03:31:53 10° NNE
Okean O Rocket 4.4 03:27:54 10° ENE 03:29:27 12° E 03:31:01 10° ESE
Cosmos 1805 3.6 03:30:54 10° N 03:34:48 63° E 03:34:49 63° E
USA 267 3.2 03:31:46 10° SSE 03:38:09 57° SW 03:44:36 10° NW
Cosmos 1271 Rocket 3.4 03:35:21 10° N 03:39:02 50° ENE 03:39:35 46° ESE
CENTAUR R/B 3.7 03:35:54 10° NNW 03:43:36 56° NE 03:51:50 10° SE
Cosmos 192 4.2 03:44:35 64° SW 03:45:18 78° WNW 03:50:16 10° NNE
COBE Rocket 3.8 03:41:24 10° N 03:46:30 82° WNW 03:47:37 55° SSW
Cosmos 1842 3.6 03:47:25 53° NW 03:47:25 53° NW 03:50:42 10° N
Cosmos 724 4.3 03:42:48 10° NW 03:48:47 60° WSW 03:52:26 23° S
ADEOS Rocket 3.0 03:43:45 10° N 03:49:39 68° WNW 03:52:01 40° SW
Tiangong 1 2.6 03:50:41 32° ENE 03:50:41 32° ENE 03:52:28 10° ENE
NOSS 3-4 (A) 4.0 03:49:09 37° W 03:51:13 49° NW 03:57:32 10° NNE
NOSS 3-4 (C) 3.9 03:49:15 37° W 03:51:19 50° NW 03:57:39 10° NNE
NOSS 2-2 (D) 4.1 03:51:47 38° SSE 03:52:38 45° ESE 03:56:54 10° NE
Nadezhda 3 Rocket 4.4 03:53:26 39° WSW 03:54:53 46° WNW 04:00:57 10° N
Resurs 1-4 Rocket 2.4 03:51:49 10° N 03:56:54 51° WNW 03:58:03 43° WSW
Abrixas 4.2 03:59:32 26° N 03:59:32 26° N 04:01:45 10° NE
COSMOS 2406 3.3 03:57:45 42° SW 03:59:35 64° WNW 04:05:19 10° NNE
Cosmos 2098 Rocket 3.9 03:57:22 10° NNE 04:00:07 31° ENE 04:01:43 18° SE
Cosmos 2082 Rocket 4.5 03:56:11 10° SE 04:00:08 20° E 04:04:05 10° NE
CZ-2D R/B 2.4 03:55:11 10° N 04:00:17 48° WNW 04:01:33 40° WSW
Cosmos 1544 3.7 03:57:27 10° NNW 04:00:19 43° NW 04:00:19 43° NW
MOZ.5/SAFIR/RUBIN 5/SL-8 3.7 03:59:02 25° SSE 04:01:46 88° WSW 04:06:29 10° NNW
NOSS 3-2 (A) 4.4 04:00:38 10° NW 04:07:33 38° WSW 04:14:52 10° S
Cosmos 1943 Rocket 4.0 04:04:55 10° NW 04:06:33 15° WNW 04:06:33 15° WNW
NOSS 2-2 (C) 3.5 04:09:36 42° SSW 04:10:54 72° ESE 04:15:26 10° NE
Cosmos 1953 2.2 04:07:07 10° NNW 04:11:04 63° W 04:12:01 46° SSW
Cosmos 389 Rocket 3.4 04:08:58 10° N 04:12:32 49° ENE 04:16:01 10° SSE
Delta 2 Rocket 4.0 04:14:25 28° SSE 04:14:25 28° SSE 04:16:59 10° ESE
Cosmos 1758 Rocket 3.6 04:15:54 40° SW 04:17:15 59° W 04:21:33 10° N
Cosmos 1707 3.3 04:15:03 19° SSE 04:17:39 56° E 04:21:28 10° NNE
Cosmos 1624 Rocket 3.9 04:13:05 10° NNW 04:18:15 65° WSW 04:23:24 10° S
Cosmos 1470 2.7 04:16:14 10° N 04:20:09 81° E 04:23:46 12° S
USA 32 4.3 04:18:56 31° SW 04:21:01 49° W 04:26:07 10° N
Landsat 4 3.6 04:18:37 12° SSE 04:22:05 85° ENE 04:25:50 10° NNW
Cosmos 1727 Rocket 4.0 04:16:46 13° S 04:22:25 84° E 04:28:37 10° N
Cosmos 1758 3.9 04:22:07 10° NNW 04:25:55 37° W 04:26:35 34° WSW
Cosmos-2242 3.0 04:21:43 10° N 04:26:09 88° E 04:30:32 10° S
USA 161 2.1 04:27:46 38° WNW 04:27:46 38° WNW 04:30:11 10° NNW
UNKNOWN OBJECT B 3.6 04:26:51 10° N 04:30:29 34° WNW 04:31:32 29° WSW
Cosmos 2056 Rocket 3.6 04:26:04 10° NNW 04:31:15 53° WSW 04:36:19 10° S
DNEPR-1 R/B 4.3 04:30:55 10° NNW 04:35:04 53° NE 04:39:25 10° SE
SL-16 R/B 3.6 04:34:29 21° WSW 04:35:39 23° W 04:40:22 10° NW
Cosmos 921 Rocket 3.2 04:32:36 10° NNW 04:36:56 50° WSW 04:41:17 10° S
Cosmos 1953 Rocket 4.4 04:36:52 26° WSW 04:38:27 33° WNW 04:42:29 10° N
Cosmos 374 Rocket 4.3 04:34:53 10° NW 04:38:32 53° WSW 04:42:35 10° SSE
MOS 1 Rocket 3.5 04:42:13 10° N 04:46:19 44° WNW 04:49:11 19° SW
Meteor 2-15 4.4 04:40:42 10° SSW 04:46:50 75° W 04:52:59 10° N
PSLV R/B 3.8 04:42:49 10° N 04:46:55 79° WNW 04:50:47 11° SSW
CZ-4B R/B 3.1 04:43:44 10° NNE 04:48:00 84° E 04:52:27 10° SSW
MOS 1-B 4.5 04:43:17 10° N 04:48:59 59° WNW 04:54:14 12° SSW
EXPRESS MD2 4.3 04:44:20 10° NW 04:49:10 42° NNE 04:51:54 10° E
Cosmos 1378 3.0 04:48:40 11° S 04:52:20 80° W 04:56:05 10° N
Lacrosse 5 rocket 1.8 04:50:27 19° WSW 04:53:40 65° NW 04:58:18 10° NE
SL-27 R/B 4.4 04:52:50 14° W 04:53:49 16° WNW 04:56:06 10° NNW
Meteor 2-15 Rocket 4.4 04:48:17 10° SSW 04:54:26 78° W 05:00:36 10° N
IRS-1C Rocket 4.2 04:50:41 10° NNE 04:55:59 80° ESE 05:01:15 10° SSW
ARIANE 5 R/B 4.4 04:54:32 10° NNW 04:57:34 16° WNW 05:00:03 12° W
Cosmos 1459 Rocket 4.1 04:56:24 10° N 05:02:34 86° E 05:08:48 10° S
CZ-4B DEB 4.2 04:57:04 10° NNE 05:02:36 88° ESE 05:08:05 10° SSW
COSMOS 2455 4.1 05:01:06 10° WNW 05:05:05 19° WSW 05:09:03 10° SW
Okean O Rocket 1.7 05:01:50 10° N 05:06:14 63° WNW 05:10:35 10° SSW
Cosmos 1452 Rocket 3.5 05:01:19 10° NNW 05:06:31 63° WSW 05:11:41 10° S
ADEOS II 2.1 05:01:32 10° N 05:06:48 73° WNW 05:12:01 10° SSW
Cosmos 1733 4.3 05:05:39 10° NW 05:08:45 24° W 05:11:49 10° SW
Meteor 2-5 Rocket 3.9 05:03:33 10° SSW 05:09:06 58° WNW 05:14:50 10° N
Cosmos 1818 4.1 05:08:43 12° WSW 05:13:25 44° NW 05:18:39 10° NNE
Cosmos 2278 3.7 05:08:59 10° NNW 05:14:41 69° WSW 05:20:19 10° SSE
COSMOS 2487 2.9 05:11:55 11° SW 05:15:13 44° WNW 05:18:40 10° N
Cosmos 1697 Rocket 3.4 05:09:55 10° NNW 05:15:29 59° ENE 05:21:00 10° SE
EO 1 Del DPAF 3.2 05:15:05 10° S 05:18:54 63° WSW 05:22:45 10° NNW
Orbus 7S? 2.4 05:16:11 10° NW 05:19:11 89° NNE 05:21:47 10° SE
SL-24 R/B 4.2 05:15:12 10° N 05:20:07 79° WNW 05:24:25 10° SSW
Cosmos 2369 3.8 05:15:42 10° NNW 05:21:22 62° WSW 05:26:59 10° S
Cosmos 1420 Rocket 4.0 05:19:58 10° NNW 05:25:16 67° WSW 05:30:30 10° S
Tiangong 1 0.7 05:22:43 10° WNW 05:25:33 89° SSW 05:28:24 10° ESE
Cosmos 1048 Rocket 4.0 05:25:45 10° SSW 05:30:52 73° WNW 05:36:00 10° NNE
Meteor 2-1 Rocket 4.2 05:25:57 10° NNW 05:31:35 76° W 05:37:18 10° S
Cosmos 2100 Rocket 4.2 05:27:36 10° NNW 05:33:34 50° W 05:39:27 10° SSW
CENTAUR R/B 3.6 05:26:58 10° NW 05:34:14 39° WSW 05:41:49 10° S
